TimeCST,TemperatureF,Dew PointF,Humidity,Sea Level PressureIn,VisibilityMPH,Wind Direction,Wind SpeedMPH,Gust SpeedMPH,PrecipitationIn,Events,Conditions,WindDirDegrees,DateUTC
12:13 AM,37.4,32.0,81,30.09,10.0,SSW,3.5,-,N/A,,Overcast,210,2012-11-15 06:13:00
12:34 AM,37.4,32.0,81,30.09,10.0,SW,4.6,-,N/A,,Overcast,230,2012-11-15 06:34:00
12:53 AM,37.4,30.2,75,30.09,10.0,WSW,5.8,-,N/A,,Overcast,240,2012-11-15 06:53:00
1:13 AM,37.4,30.2,75,30.08,10.0,SW,3.5,-,N/A,,Mostly Cloudy,230,2012-11-15 07:13:00
1:34 AM,37.4,30.2,75,30.07,10.0,South,3.5,-,N/A,,Mostly Cloudy,180,2012-11-15 07:34:00
1:53 AM,37.4,30.2,75,30.07,10.0,South,5.8,-,N/A,,Overcast,170,2012-11-15 07:53:00
2:13 AM,35.6,30.2,81,30.07,10.0,Calm,Calm,-,N/A,,Mostly Cloudy,0,2012-11-15 08:13:00
2:34 AM,35.6,30.2,81,30.09,10.0,WSW,5.8,-,N/A,,Mostly Cloudy,250,2012-11-15 08:34:00
2:53 AM,37.4,30.2,75,30.09,10.0,SW,4.6,-,N/A,,Scattered Clouds,230,2012-11-15 08:53:00
3:13 AM,35.6,30.2,81,30.09,10.0,WSW,5.8,-,N/A,,Clear,240,2012-11-15 09:13:00
3:34 AM,35.6,30.2,81,30.09,10.0,SW,5.8,-,N/A,,Clear,230,2012-11-15 09:34:00
3:53 AM,35.6,30.2,81,30.10,10.0,WSW,8.1,-,N/A,,Clear,250,2012-11-15 09:53:00
4:13 AM,33.8,30.2,87,30.10,10.0,WSW,5.8,-,N/A,,Clear,240,2012-11-15 10:13:00
4:34 AM,35.6,30.2,81,30.10,10.0,WSW,5.8,-,N/A,,Clear,250,2012-11-15 10:34:00
4:53 AM,33.8,30.2,87,30.10,10.0,West,6.9,-,N/A,,Clear,260,2012-11-15 10:53:00
5:13 AM,32.0,28.4,87,30.11,10.0,West,8.1,-,N/A,,Clear,260,2012-11-15 11:13:00
5:34 AM,33.8,30.2,87,30.12,10.0,West,6.9,-,N/A,,Clear,270,2012-11-15 11:34:00
5:53 AM,33.8,30.2,87,30.12,10.0,West,8.1,-,N/A,,Clear,280,2012-11-15 11:53:00
6:14 AM,33.8,30.2,87,30.13,10.0,West,9.2,-,N/A,,Clear,280,2012-11-15 12:14:00
6:33 AM,33.8,30.2,87,30.14,10.0,West,9.2,-,N/A,,Clear,280,2012-11-15 12:33:00
6:53 AM,32.0,30.2,93,30.15,10.0,WNW,9.2,-,N/A,,Clear,290,2012-11-15 12:53:00
7:13 AM,32.0,30.2,93,30.16,10.0,WNW,10.4,-,N/A,,Clear,300,2012-11-15 13:13:00
7:33 AM,32.0,30.2,93,30.18,10.0,WNW,11.5,-,N/A,,Clear,300,2012-11-15 13:33:00
7:53 AM,32.0,30.2,93,30.19,10.0,WNW,11.5,-,N/A,,Clear,300,2012-11-15 13:53:00
8:14 AM,33.8,30.2,87,30.20,10.0,NW,9.2,-,N/A,,Clear,310,2012-11-15 14:14:00
8:33 AM,33.8,30.2,87,30.22,10.0,NW,10.4,-,N/A,,Clear,310,2012-11-15 14:33:00
8:53 AM,33.8,30.2,87,30.23,10.0,NW,11.5,-,N/A,,Clear,310,2012-11-15 14:53:00
9:14 AM,33.8,30.2,87,30.24,10.0,NW,11.5,-,N/A,,Clear,310,2012-11-15 15:14:00
9:33 AM,35.6,30.2,81,30.25,10.0,NNW,6.9,-,N/A,,Clear,330,2012-11-15 15:33:00
9:53 AM,35.6,30.2,81,30.25,10.0,NW,10.4,-,N/A,,Clear,320,2012-11-15 15:53:00
10:14 AM,37.4,30.2,75,30.27,10.0,NNW,13.8,17.3,N/A,,Clear,330,2012-11-15 16:14:00
10:33 AM,37.4,30.2,75,30.28,10.0,NNW,11.5,-,N/A,,Clear,330,2012-11-15 16:33:00
10:53 AM,37.4,30.2,75,30.29,10.0,NNW,10.4,-,N/A,,Clear,330,2012-11-15 16:53:00
11:14 AM,39.2,28.4,65,30.29,10.0,NNW,11.5,-,N/A,,Clear,330,2012-11-15 17:14:00
11:33 AM,41.0,26.6,57,30.30,10.0,NW,13.8,-,N/A,,Clear,320,2012-11-15 17:33:00
11:53 AM,39.2,24.8,56,30.30,10.0,NW,12.7,-,N/A,,Clear,320,2012-11-15 17:53:00
12:14 PM,39.2,24.8,56,30.30,10.0,NW,15.0,-,N/A,,Clear,320,2012-11-15 18:14:00
12:33 PM,39.2,23.0,52,30.31,10.0,NNW,15.0,-,N/A,,Clear,330,2012-11-15 18:33:00
12:53 PM,39.2,24.8,56,30.31,10.0,NNW,13.8,-,N/A,,Clear,330,2012-11-15 18:53:00
1:14 PM,39.2,21.2,49,30.32,10.0,NW,17.3,21.9,N/A,,Clear,320,2012-11-15 19:14:00
1:33 PM,39.2,19.4,45,30.33,10.0,NW,13.8,18.4,N/A,,Clear,310,2012-11-15 19:33:00
1:53 PM,39.2,19.4,45,30.34,10.0,NW,16.1,25.3,N/A,,Clear,320,2012-11-15 19:53:00
2:14 PM,37.4,17.6,45,30.34,10.0,NNW,16.1,-,N/A,,Clear,330,2012-11-15 20:14:00
2:33 PM,37.4,17.6,45,30.34,10.0,NW,15.0,20.7,N/A,,Clear,320,2012-11-15 20:33:00
2:54 PM,37.4,17.6,45,30.35,10.0,NW,15.0,18.4,N/A,,Clear,320,2012-11-15 20:54:00
3:13 PM,37.4,17.6,45,30.36,10.0,NNW,12.7,-,N/A,,Clear,330,2012-11-15 21:13:00
3:33 PM,35.6,15.8,44,30.37,10.0,NNW,11.5,-,N/A,,Clear,330,2012-11-15 21:33:00
3:54 PM,35.6,17.6,48,30.37,10.0,NW,9.2,-,N/A,,Clear,320,2012-11-15 21:54:00
4:13 PM,33.8,17.6,52,30.38,10.0,NNW,6.9,-,N/A,,Clear,330,2012-11-15 22:13:00
4:33 PM,33.8,17.6,52,30.39,10.0,NW,9.2,-,N/A,,Clear,320,2012-11-15 22:33:00
4:54 PM,30.2,17.6,60,30.40,10.0,NW,6.9,-,N/A,,Clear,320,2012-11-15 22:54:00
5:13 PM,30.2,15.8,55,30.40,10.0,NW,5.8,-,N/A,,Clear,320,2012-11-15 23:13:00
5:33 PM,28.4,17.6,64,30.41,10.0,NNW,9.2,-,N/A,,Clear,330,2012-11-15 23:33:00
5:54 PM,28.4,15.8,59,30.41,10.0,NW,6.9,-,N/A,,Clear,320,2012-11-15 23:54:00
6:13 PM,28.4,15.8,59,30.41,10.0,NNW,6.9,-,N/A,,Clear,340,2012-11-16 00:13:00
6:33 PM,26.6,15.8,64,30.41,10.0,NNW,5.8,-,N/A,,Clear,330,2012-11-16 00:33:00
6:54 PM,26.6,15.8,64,30.42,10.0,NNW,6.9,-,N/A,,Clear,330,2012-11-16 00:54:00
7:33 PM,26.6,17.6,69,30.42,10.0,NNW,4.6,-,N/A,,Clear,330,2012-11-16 01:33:00
7:54 PM,24.8,17.6,74,30.42,10.0,NNW,4.6,-,N/A,,Clear,330,2012-11-16 01:54:00
8:13 PM,24.8,17.6,74,30.42,10.0,NNW,4.6,-,N/A,,Clear,340,2012-11-16 02:13:00
8:33 PM,24.8,17.6,74,30.42,10.0,Calm,Calm,-,N/A,,Clear,0,2012-11-16 02:33:00
8:54 PM,24.8,17.6,74,30.43,10.0,Calm,Calm,-,N/A,,Clear,0,2012-11-16 02:54:00
9:13 PM,24.8,17.6,74,30.44,10.0,Calm,Calm,-,N/A,,Clear,0,2012-11-16 03:13:00
9:33 PM,24.8,17.6,74,30.44,10.0,Calm,Calm,-,N/A,,Clear,0,2012-11-16 03:33:00
9:54 PM,23.0,15.8,74,30.45,10.0,Calm,Calm,-,N/A,,Clear,0,2012-11-16 03:54:00
10:13 PM,24.8,17.6,74,30.45,10.0,Calm,Calm,-,N/A,,Clear,0,2012-11-16 04:13:00
10:33 PM,24.8,17.6,74,30.45,10.0,NNE,3.5,-,N/A,,Clear,30,2012-11-16 04:33:00
10:54 PM,24.8,15.8,69,30.45,10.0,Calm,Calm,-,N/A,,Clear,0,2012-11-16 04:54:00
11:13 PM,23.0,15.8,74,30.46,10.0,NE,3.5,-,N/A,,Clear,50,2012-11-16 05:13:00
11:33 PM,24.8,15.8,69,30.47,10.0,Calm,Calm,-,N/A,,Clear,0,2012-11-16 05:33:00
11:54 PM,23.0,15.8,74,30.47,10.0,North,4.6,-,N/A,,Clear,360,2012-11-16 05:54:00